• In Lithuania
  • List of Countries
  • For 7 days
  • Water Temperature
  • Satellite Maps
  • Weather Map
  • Weather Widgets
  • user-avatar
    Login

    Hourly Weather Poluninka

    Today, 23 October, Tuesday

    Time Temperature Precipitation Wind Pressure Humidity
    00:00 +4°C° 0 mm 2 mps 739 mmHg 75%
    01:00 +4°C° 0 mm 2 mps 739 mmHg 77%
    02:00 +4°C° 0 mm 2 mps 738 mmHg 78%
    03:00 +3°C° 0 mm 2 mps 737 mmHg 79%
    04:00 +2°C° 0 mm 3 mps 736 mmHg 79%
    05:00 +2°C° 0 mm 3 mps 736 mmHg 79%
    06:00 +1°C° 0 mm 3 mps 735 mmHg 80%
    07:00 +1°C° 0 mm 4 mps 735 mmHg 78%
    08:00 +1°C° 0 mm 4 mps 735 mmHg 76%
    09:00 +2°C° 0 mm 5 mps 734 mmHg 75%
    10:00 +3°C° 0 mm 5 mps 734 mmHg 72%
    11:00 +5°C° 0 mm 5 mps 733 mmHg 69%
    12:00 +5°C° 0 mm 6 mps 733 mmHg 65%
    13:00 +5°C° 0 mm 6 mps 732 mmHg 66%
    14:00 +7°C° 0 mm 6 mps 732 mmHg 66%
    15:00 +7°C° 0 mm 6 mps 731 mmHg 66%
    16:00 +6°C° 0 mm 5 mps 731 mmHg 69%
    17:00 +6°C° 0 mm 5 mps 730 mmHg 73%
    18:00 +5°C° 0 mm 4 mps 730 mmHg 76%
    19:00 +5°C° 0.1 mm 4 mps 729 mmHg 77%
    20:00 +5°C° 0.1 mm 5 mps 729 mmHg 78%
    21:00 +5°C° 0.1 mm 5 mps 728 mmHg 80%
    22:00 +5°C° 0.1 mm 5 mps 727 mmHg 80%
    23:00 +5°C° 0.1 mm 5 mps 727 mmHg 80%

    Tomorrow, 24 October, Wednesday

    Time Temperature Precipitation Wind Pressure Humidity
    00:00 +5°C° 0.1 mm 5 mps 726 mmHg 81%
    01:00 +5°C° 0.2 mm 5 mps 725 mmHg 82%
    02:00 +5°C° 0.2 mm 5 mps 724 mmHg 82%
    03:00 +3°C° 0.2 mm 5 mps 724 mmHg 83%
    04:00 +3°C° 0.4 mm 5 mps 723 mmHg 82%
    05:00 +3°C° 0.4 mm 5 mps 722 mmHg 80%
    06:00 +3°C° 0.4 mm 6 mps 721 mmHg 79%
    07:00 +4°C° 0.2 mm 6 mps 721 mmHg 80%
    08:00 +4°C° 0.2 mm 6 mps 720 mmHg 80%
    09:00 +4°C° 0.2 mm 7 mps 719 mmHg 80%
    10:00 +4°C° 0.5 mm 7 mps 719 mmHg 81%
    11:00 +5°C° 0.5 mm 7 mps 718 mmHg 82%
    12:00 +5°C° 0.5 mm 7 mps 717 mmHg 82%
    13:00 +5°C° 0.2 mm 7 mps 717 mmHg 82%
    14:00 +7°C° 0.2 mm 6 mps 717 mmHg 81%
    15:00 +7°C° 0.2 mm 6 mps 716 mmHg 81%
    16:00 +7°C° 0.7 mm 6 mps 716 mmHg 83%
    17:00 +5°C° 0.7 mm 6 mps 716 mmHg 85%
    18:00 +6°C° 0.7 mm 5 mps 716 mmHg 86%
    19:00 +5°C° 0.1 mm 5 mps 716 mmHg 86%
    20:00 +5°C° 0.1 mm 5 mps 716 mmHg 87%
    21:00 +5°C° 0.1 mm 5 mps 717 mmHg 87%
    22:00 +5°C° 0 mm 4 mps 717 mmHg 87%
    23:00 +4°C° 0 mm 4 mps 717 mmHg 88%

    Day after tomorrow, 25 October, Thursday

    Time Temperature Precipitation Wind Pressure Humidity
    00:00 +4°C° 0 mm 4 mps 717 mmHg 89%
    01:00 +4°C° 0.1 mm 3 mps 717 mmHg 90%
    02:00 +3°C° 0.1 mm 3 mps 717 mmHg 90%
    03:00 +3°C° 0.1 mm 3 mps 717 mmHg 91%
    04:00 +2°C° 0 mm 3 mps 717 mmHg 91%
    05:00 +2°C° 0 mm 3 mps 717 mmHg 91%
    06:00 +1°C° 0 mm 3 mps 716 mmHg 91%
    07:00 +1°C° 0 mm 4 mps 717 mmHg 89%
    08:00 +1°C° 0 mm 5 mps 717 mmHg 87%
    09:00 +1°C° 0 mm 5 mps 717 mmHg 85%
    10:00 +2°C° 0.2 mm 6 mps 717 mmHg 82%
    11:00 +2°C° 0.2 mm 7 mps 717 mmHg 79%
    12:00 +3°C° 0.2 mm 7 mps 717 mmHg 76%
    13:00 +3°C° 0.5 mm 7 mps 717 mmHg 77%
    14:00 +3°C° 0.5 mm 7 mps 718 mmHg 79%
    15:00 +3°C° 0.5 mm 7 mps 718 mmHg 81%
    16:00 +3°C° 0.2 mm 6 mps 718 mmHg 81%
    17:00 +3°C° 0.2 mm 6 mps 719 mmHg 82%
    18:00 +2°C° 0.2 mm 5 mps 719 mmHg 82%
    19:00 +2°C° 0.1 mm 5 mps 720 mmHg 82%
    20:00 +2°C° 0.1 mm 5 mps 720 mmHg 82%
    21:00 +1°C° 0.1 mm 4 mps 721 mmHg 83%
    22:00 +1°C° 0 mm 4 mps 721 mmHg 83%
    23:00 +1°C° 0 mm 4 mps 722 mmHg 84%

    26 October, Friday

    Time Temperature Precipitation Wind Pressure Humidity
    00:00 0°C° 0 mm 4 mps 722 mmHg 84%
    01:00 0°C° 0 mm 4 mps 723 mmHg 85%
    02:00 0°C° 0 mm 4 mps 723 mmHg 85%
    03:00 -1°C° 0 mm 4 mps 723 mmHg 85%
    04:00 -1°C° 0 mm 4 mps 724 mmHg 84%
    05:00 -1°C° 0 mm 4 mps 724 mmHg 82%
    06:00 -1°C° 0 mm 4 mps 725 mmHg 81%
    07:00 0°C° 0 mm 4 mps 725 mmHg 79%
    08:00 0°C° 0 mm 4 mps 726 mmHg 77%
    09:00 +1°C° 0 mm 5 mps 726 mmHg 74%
    10:00 +1°C° 0 mm 5 mps 726 mmHg 71%
    11:00 +2°C° 0 mm 5 mps 727 mmHg 67%
    12:00 +3°C° 0 mm 5 mps 727 mmHg 63%
    13:00 +3°C° 0 mm 5 mps 727 mmHg 63%
    14:00 +3°C° 0 mm 6 mps 727 mmHg 63%
    15:00 +3°C° 0 mm 6 mps 728 mmHg 62%
    16:00 +3°C° 0.1 mm 5 mps 728 mmHg 67%
    17:00 +2°C° 0.1 mm 5 mps 728 mmHg 72%
    18:00 +3°C° 0.1 mm 4 mps 729 mmHg 76%
    19:00 +1°C° 0.1 mm 4 mps 729 mmHg 78%
    20:00 +1°C° 0.1 mm 5 mps 729 mmHg 80%
    21:00 +1°C° 0.1 mm 5 mps 730 mmHg 82%
    22:00 +1°C° 0 mm 5 mps 730 mmHg 85%
    23:00 0°C° 0 mm 5 mps 730 mmHg 87%

    27 October, Saturday

    Time Temperature Precipitation Wind Pressure Humidity
    00:00 0°C° 0 mm 4 mps 731 mmHg 89%
    01:00 -1°C° 0 mm 4 mps 731 mmHg 90%
    02:00 -1°C° 0 mm 4 mps 732 mmHg 90%
    03:00 -1°C° 0 mm 4 mps 733 mmHg 91%
    04:00 -1°C° 0 mm 4 mps 733 mmHg 91%
    05:00 -2°C° 0 mm 4 mps 733 mmHg 90%
    06:00 -2°C° 0 mm 4 mps 734 mmHg 90%
    07:00 -1°C° 0 mm 5 mps 734 mmHg 88%
    08:00 -1°C° 0 mm 5 mps 734 mmHg 86%
    09:00 0°C° 0 mm 5 mps 735 mmHg 84%
    10:00 +1°C° 0 mm 5 mps 735 mmHg 79%
    11:00 +2°C° 0 mm 6 mps 735 mmHg 74%
    12:00 +3°C° 0 mm 6 mps 735 mmHg 69%
    13:00 +3°C° 0 mm 7 mps 734 mmHg 69%
    14:00 +4°C° 0 mm 7 mps 734 mmHg 68%
    15:00 +4°C° 0 mm 7 mps 733 mmHg 67%
    16:00 +4°C° 0.1 mm 8 mps 733 mmHg 71%
    17:00 +4°C° 0.1 mm 8 mps 732 mmHg 75%
    18:00 +4°C° 0.1 mm 8 mps 732 mmHg 78%
    19:00 +5°C° 0.2 mm 8 mps 731 mmHg 77%
    20:00 +5°C° 0.2 mm 9 mps 731 mmHg 77%
    21:00 +6°C° 0.2 mm 9 mps 730 mmHg 76%
    22:00 +6°C° 0.1 mm 9 mps 730 mmHg 77%
    23:00 +6°C° 0.1 mm 8 mps 730 mmHg 78%

    28 October, Sunday

    Time Temperature Precipitation Wind Pressure Humidity
    00:00 +6°C° 0.1 mm 8 mps 730 mmHg 80%
    01:00 +6°C° 0 mm 7 mps 730 mmHg 82%
    02:00 +7°C° 0 mm 6 mps 731 mmHg 84%
    03:00 +5°C° 0 mm 6 mps 731 mmHg 86%
    04:00 +5°C° 0 mm 6 mps 731 mmHg 86%
    05:00 +4°C° 0 mm 6 mps 732 mmHg 86%
    06:00 +4°C° 0 mm 6 mps 732 mmHg 86%
    07:00 +4°C° 0 mm 6 mps 733 mmHg 85%
    08:00 +4°C° 0 mm 6 mps 734 mmHg 83%
    09:00 +3°C° 0 mm 6 mps 734 mmHg 81%
    10:00 +4°C° 0 mm 6 mps 735 mmHg 78%
    11:00 +4°C° 0 mm 6 mps 736 mmHg 75%
    12:00 +5°C° 0 mm 5 mps 736 mmHg 72%
    13:00 +5°C° 0 mm 5 mps 737 mmHg 71%
    14:00 +5°C° 0 mm 4 mps 737 mmHg 69%
    15:00 +5°C° 0 mm 3 mps 738 mmHg 68%
    16:00 +4°C° 0 mm 3 mps 738 mmHg 70%
    17:00 +5°C° 0 mm 2 mps 739 mmHg 72%
    18:00 +6°C° 0 mm 1 mps 739 mmHg 73%
    19:00 +6°C° 0 mm 1 mps 740 mmHg 74%
    20:00 +5°C° 0 mm 1 mps 740 mmHg 74%
    21:00 +5°C° 0 mm 1 mps 741 mmHg 75%
    22:00 +5°C° 0.1 mm 1 mps 741 mmHg 76%
    23:00 +5°C° 0.1 mm 1 mps 741 mmHg 77%

    29 October, Monday

    Time Temperature Precipitation Wind Pressure Humidity
    00:00 +4°C° 0.1 mm 2 mps 741 mmHg 77%
    01:00 +4°C° 0 mm 2 mps 741 mmHg 78%
    02:00 +3°C° 0 mm 3 mps 742 mmHg 78%
    03:00 +3°C° 0 mm 3 mps 742 mmHg 79%
    04:00 +3°C° 0.1 mm 4 mps 742 mmHg 79%
    05:00 +3°C° 0.1 mm 4 mps 741 mmHg 80%
    06:00 +2°C° 0.1 mm 5 mps 741 mmHg 80%
    07:00 +2°C° 0.3 mm 5 mps 741 mmHg 81%
    08:00 +2°C° 0.3 mm 5 mps 741 mmHg 83%
    09:00 +2°C° 0.3 mm 5 mps 741 mmHg 84%
    10:00 +2°C° 0.2 mm 5 mps 741 mmHg 85%
    11:00 +2°C° 0.2 mm 5 mps 741 mmHg 86%
    12:00 +3°C° 0.2 mm 5 mps 741 mmHg 88%
    13:00 +3°C° 0 mm 5 mps 741 mmHg 88%
    14:00 +5°C° 0 mm 5 mps 740 mmHg 89%
    15:00 +5°C° 0 mm 5 mps 740 mmHg 89%
    16:00 +5°C° 0 mm 4 mps 740 mmHg 91%
    17:00 +6°C° 0 mm 4 mps 740 mmHg 92%
    18:00 +6°C° 0 mm 4 mps 740 mmHg 94%
    19:00 +6°C° 0 mm 4 mps 740 mmHg 95%
    20:00 +6°C° 0 mm 4 mps 740 mmHg 95%
    21:00 +7°C° 0 mm 4 mps 740 mmHg 96%
    22:00 +7°C° 0 mm 4 mps 740 mmHg 95%
    23:00 +7°C° 0 mm 4 mps 740 mmHg 94%
    Show more